Regional Weather Roundup
Issued by NWS

Home | Current Version | Previous Version | Text Only | Print | Product List | Glossary On
Versions: 1 2 3 4 5 6 7 8 9 10 11 12 13 14 15 16 17 18 19 20 21 22 23 24 25 26 27 28 29 30 31 32 33 34 35 36 37 38 39 40 41 42 43 44 45 46 47 48 49 50
000
ASCA44 KEWX 290420
RWRMX

LATIN AMERICA AND CARIBBEAN REGIONAL WEATHER ROUNDUP
NATIONAL WEATHER SERVICE AUSTIN/SAN ANTONIO TX
1100 PM CDT SAT MAR 28 2015

NOTE: "FAIR" INDICATED FEW OR NO CLOUDS BELOW 12,000 FEET WITH NO
SIGNIFICANT WEATHER AND/OR OBSTRUCTIONS TO VISIBILITY.

BAJA CALIFORNIA

CITY           SKY/WX    TMP DP  RH WIND       PRES   REMARKS
LA PAZ         CLEAR     75  52  43 S12       30.01R
MEXICALI       PTCLDY    84  37  18 CALM      29.91R
S.J. DEL CABO  CLEAR     73  37  27 W6        29.99R
TIJUANA        PTCLDY    61  57  88 W6        30.08R

NORTHWESTERN MEXICO

CITY           SKY/WX    TMP DP  RH WIND       PRES   REMARKS
CULIACAN       CLEAR     75  70  83 CALM      29.99R
HERMOSILLO     PTCLDY    82  36  18 NW3       29.96R
CD. JUAREZ     CLEAR     77  19  11 W13       30.05S
LOS MOCHIS     CLEAR     75  59  57 CALM      29.96R
OBREGON          N/A    N/A N/A N/A MISG        N/A

NORTHEASTERN MEXICO

CITY           SKY/WX    TMP DP  RH WIND       PRES   REMARKS
CHIHUAHUA      CLEAR     64  27  24 SW9       30.19R
MONTERREY      CLEAR     66  48  52 E8        30.10R
REYNOSA        CLEAR     64  55  72 SE9       30.14R
TORREON        CLEAR     72  41  33 CALM      30.18R
CD. VICTORIA   PTCLDY    68  68 100 S17       30.13S

WESTERN MEXICO

CITY           SKY/WX    TMP DP  RH WIND       PRES   REMARKS
AGUASCALIENTES PTCLDY    57  39  51 N13       30.38R
DEL BAJIO      CLOUDY    57  50  77 E6        30.41R
GUADALAJARA    PTCLDY    66  43  42 CALM      30.25R
MANZANILLO     CLEAR     73  72  94 CALM      29.98R
MAZATLAN       CLEAR     66  63  88 S7        30.00R
P. VALLARTA    CLEAR     73  68  83 CALM      30.02R
ZACATECAS      PTCLDY    54  39  58 W7        30.37R

CENTRAL MEXICO

CITY           SKY/WX    TMP DP  RH WIND       PRES   REMARKS
MEXICO CITY    LGT RAIN  54  45  71 N13       30.48R
MORELIA        MOCLDY    57  54  88 SE5       30.34R
POZA RICA      PTCLDY    68  63  83 CALM      30.23R
PUEBLA         MOCLDY    52  48  87 N7        30.45R
QUERETARO      MOCLDY    57  43  58 E7        30.42R
S. LUIS POTOSI MOCLDY    54  50  87 E5        30.39R
TAMPICO        PTCLDY    68  59  73 SE7       30.19R
TOLUCA         MOCLDY    50  41  71 W3        30.51R

SOUTHERN MEXICO

CITY           SKY/WX    TMP DP  RH WIND       PRES   REMARKS
ACAPULCO       CLEAR     79  73  83 W5        30.01R
B. DE HUATULCO CLEAR     79  72  78 CALM      30.02R
OAXACA         CLOUDY    63  57  82 CALM      30.36R
VERACRUZ       CLOUDY    68  63  83 S3        30.19

YUCATAN PENINSULA

CITY           SKY/WX    TMP DP  RH WIND       PRES   REMARKS
CAMPECHE       CLOUDY    77  63  61 NE12      30.13R
CANCUN         MOCLDY    75  63  64 E7        30.18R
COZUMEL        CLOUDY    72  64  78 NE8G20    30.17R
MERIDA         MOCLDY    73  61  64 NE12      30.18R
TAPACHULA      PTCLDY    82  77  83 CALM      30.00R HX  91
TUX. GUTIERREZ PTCLDY    68  59  73 NW9       30.15R
VILLAHERMOSA   CLOUDY    72  70  94 CALM      30.19S

CENTRAL AMERICA

CITY           SKY/WX    TMP DP  RH WIND       PRES   REMARKS
MANAGUA        PTCLDY    84  64  51 E7        29.94R

CARIBBEAN

CITY           SKY/WX    TMP DP  RH WIND       PRES   REMARKS
ARUBA          PTCLDY    81  73  78 E21       29.94F
CURACAO        PTCLDY    79  73  83 E12       30.00R
KINGSTON       PTCLDY    81  72  74 SE8       30.03S
NASSAU         CLOUDY    70  52  52 N7        30.19R
SAN JUAN       PTCLDY    77  70  78 VRB5      30.12S
SANTO DOMINGO  PTCLDY    73  72  94 VRB3      30.06F
ST. MAARTEN    PTCLDY    79  68  69 E12       30.12S

$$




USA.gov is the U.S. government's official web portal to all federal, state and local government web resources and services.